Time,TemperatureF,DewpointF,PressureIn,WindDirection,WindDirectionDegrees,WindSpeedMPH,WindSpeedGustMPH,Humidity,HourlyPrecipIn,Conditions,Clouds,dailyrainin,SoftwareType,DateUTC
2013-05-15 00:02:00,44.8,32.5,30.13,SW,225,1.2,0.0,62,0.00,CLR,,0.00,WeatherDisplay:10.37,2013-05-15 07:02:00,
2013-05-15 00:07:00,44.8,32.1,30.13,SW,225,1.2,0.0,61,0.00,CLR,,0.00,WeatherDisplay:10.37,2013-05-15 07:07:00,
2013-05-15 00:12:00,44.8,32.5,30.13,West,270,1.2,0.0,62,0.00,CLR,,0.00,WeatherDisplay:10.37,2013-05-15 07:12:00,
2013-05-15 00:17:00,44.8,32.1,30.13,West,270,1.2,0.0,61,0.00,CLR,,0.00,WeatherDisplay:10.37,2013-05-15 07:17:00,
2013-05-15 00:22:00,44.6,29.0,30.13,West,270,0.0,0.0,54,0.00,CLR,,0.00,WeatherDisplay:10.37,2013-05-15 07:22:00,
2013-05-15 00:27:00,44.6,29.0,30.13,SW,225,0.0,0.0,54,0.00,CLR,,0.00,WeatherDisplay:10.37,2013-05-15 07:27:00,
2013-05-15 00:32:00,44.4,28.8,30.13,South,180,1.2,0.0,54,0.00,CLR,,0.00,WeatherDisplay:10.37,2013-05-15 07:32:00,
2013-05-15 00:37:00,44.2,29.1,30.13,SW,225,0.0,0.0,55,0.00,CLR,,0.00,WeatherDisplay:10.37,2013-05-15 07:37:00,
2013-05-15 00:42:00,44.2,29.1,30.12,SW,225,0.0,0.0,55,0.00,CLR,,0.00,WeatherDisplay:10.37,2013-05-15 07:42:00,
2013-05-15 00:47:00,44.1,29.4,30.13,SW,225,0.0,0.0,56,0.00,CLR,,0.00,WeatherDisplay:10.37,2013-05-15 07:47:00,
2013-05-15 00:52:00,44.1,29.4,30.12,SE,135,0.0,0.0,56,0.00,CLR,,0.00,WeatherDisplay:10.37,2013-05-15 07:52:00,
2013-05-15 00:57:00,43.9,29.2,30.13,SE,135,0.0,0.0,56,0.00,CLR,,0.00,WeatherDisplay:10.37,2013-05-15 07:57:00,
2013-05-15 01:02:00,43.7,28.6,30.12,SE,135,0.0,0.0,55,0.00,CLR,,0.00,WeatherDisplay:10.37,2013-05-15 08:02:00,
2013-05-15 01:07:00,43.7,28.6,30.13,SW,225,0.0,0.0,55,0.00,CLR,,0.00,WeatherDisplay:10.37,2013-05-15 08:07:00,
2013-05-15 01:12:00,43.7,29.0,30.13,SW,225,0.0,0.0,56,0.00,CLR,,0.00,WeatherDisplay:10.37,2013-05-15 08:12:00,
2013-05-15 01:17:00,43.7,29.5,30.12,SW,225,0.0,0.0,57,0.00,CLR,,0.00,WeatherDisplay:10.37,2013-05-15 08:17:00,
2013-05-15 01:22:00,43.7,29.5,30.12,SW,225,0.0,0.0,57,0.00,CLR,,0.00,WeatherDisplay:10.37,2013-05-15 08:22:00,
2013-05-15 01:27:00,43.7,29.5,30.12,South,180,1.2,0.0,57,0.00,CLR,,0.00,WeatherDisplay:10.37,2013-05-15 08:27:00,
2013-05-15 01:32:00,43.5,29.3,30.12,SW,225,1.2,0.0,57,0.00,CLR,,0.00,WeatherDisplay:10.37,2013-05-15 08:32:00,
2013-05-15 01:37:00,43.5,29.3,30.12,West,270,0.0,0.0,57,0.00,CLR,,0.00,WeatherDisplay:10.37,2013-05-15 08:37:00,
2013-05-15 01:42:00,43.7,29.9,30.13,NW,315,1.2,0.0,58,0.00,CLR,,0.00,WeatherDisplay:10.37,2013-05-15 08:42:00,
2013-05-15 01:47:00,44.1,30.2,30.12,NE,45,1.2,1.2,58,0.00,CLR,,0.00,WeatherDisplay:10.37,2013-05-15 08:47:00,
2013-05-15 01:52:00,44.2,30.8,30.12,NE,45,1.2,0.0,59,0.00,CLR,,0.00,WeatherDisplay:10.37,2013-05-15 08:52:00,
2013-05-15 01:57:00,44.4,31.0,30.12,NE,45,0.0,0.0,59,0.00,CLR,,0.00,WeatherDisplay:10.37,2013-05-15 08:57:00,
2013-05-15 02:02:00,44.4,30.1,30.11,NE,45,0.0,0.0,57,0.00,CLR,,0.00,WeatherDisplay:10.37,2013-05-15 09:02:00,
2013-05-15 02:07:00,44.4,30.1,30.12,West,270,0.0,0.0,57,0.00,CLR,,0.00,WeatherDisplay:10.37,2013-05-15 09:07:00,
2013-05-15 02:12:00,44.2,29.1,30.12,West,270,1.2,0.0,55,0.00,CLR,,0.00,WeatherDisplay:10.37,2013-05-15 09:12:00,
2013-05-15 02:17:00,44.1,29.4,30.12,West,270,0.0,0.0,56,0.00,CLR,,0.00,WeatherDisplay:10.37,2013-05-15 09:17:00,
2013-05-15 02:22:00,43.9,29.2,30.12,SW,225,1.2,0.0,56,0.00,CLR,,0.00,WeatherDisplay:10.37,2013-05-15 09:22:00,
2013-05-15 02:27:00,43.9,29.2,30.12,SW,225,1.2,0.0,56,0.00,CLR,,0.00,WeatherDisplay:10.37,2013-05-15 09:27:00,
2013-05-15 02:32:00,43.9,29.6,30.12,SW,225,0.0,0.0,57,0.00,CLR,,0.00,WeatherDisplay:10.37,2013-05-15 09:32:00,
2013-05-15 02:37:00,43.9,29.6,30.12,SW,225,0.0,0.0,57,0.00,CLR,,0.00,WeatherDisplay:10.37,2013-05-15 09:37:00,
2013-05-15 02:42:00,44.1,29.8,30.12,SW,225,0.0,0.0,57,0.00,CLR,,0.00,WeatherDisplay:10.37,2013-05-15 09:42:00,
2013-05-15 02:47:00,43.9,29.6,30.12,SW,225,0.0,0.0,57,0.00,CLR,,0.00,WeatherDisplay:10.37,2013-05-15 09:47:00,
2013-05-15 02:52:00,43.9,29.6,30.12,SW,225,0.0,0.0,57,0.00,CLR,,0.00,WeatherDisplay:10.37,2013-05-15 09:52:00,
2013-05-15 02:57:00,43.9,29.6,30.12,SW,225,0.0,0.0,57,0.00,CLR,,0.00,WeatherDisplay:10.37,2013-05-15 09:57:00,
2013-05-15 03:02:00,44.1,29.8,30.11,SW,225,0.0,0.0,57,0.00,CLR,,0.00,WeatherDisplay:10.37,2013-05-15 10:02:00,
2013-05-15 03:07:00,43.9,29.2,30.11,SW,225,0.0,0.0,56,0.00,CLR,,0.00,WeatherDisplay:10.37,2013-05-15 10:07:00,
2013-05-15 03:12:00,43.9,29.2,30.11,West,270,0.0,0.0,56,0.00,CLR,,0.00,WeatherDisplay:10.37,2013-05-15 10:12:00,
2013-05-15 03:17:00,44.1,29.8,30.11,West,270,1.2,0.0,57,0.00,CLR,,0.00,WeatherDisplay:10.37,2013-05-15 10:17:00,
2013-05-15 03:22:00,44.1,30.2,30.11,SW,225,1.2,0.0,58,0.00,CLR,,0.00,WeatherDisplay:10.37,2013-05-15 10:22:00,
2013-05-15 03:27:00,43.9,29.2,30.11,West,270,0.0,0.0,56,0.00,CLR,,0.00,WeatherDisplay:10.37,2013-05-15 10:27:00,
2013-05-15 03:32:00,44.1,29.8,30.10,North,0,0.0,0.0,57,0.00,CLR,,0.00,WeatherDisplay:10.37,2013-05-15 10:32:00,
2013-05-15 03:37:00,44.2,30.0,30.10,North,0,0.0,0.0,57,0.00,CLR,,0.00,WeatherDisplay:10.37,2013-05-15 10:37:00,
2013-05-15 03:42:00,44.2,30.0,30.10,South,180,1.2,0.0,57,0.00,CLR,,0.00,WeatherDisplay:10.37,2013-05-15 10:42:00,
2013-05-15 03:47:00,44.2,30.0,30.10,NW,315,1.2,0.0,57,0.00,CLR,,0.00,WeatherDisplay:10.37,2013-05-15 10:47:00,
2013-05-15 03:52:00,44.2,30.8,30.09,West,270,0.0,0.0,59,0.00,CLR,,0.00,WeatherDisplay:10.37,2013-05-15 10:52:00,
2013-05-15 03:57:00,44.2,30.8,30.10,West,270,0.0,0.0,59,0.00,CLR,,0.00,WeatherDisplay:10.37,2013-05-15 10:57:00,
2013-05-15 04:02:00,44.2,30.4,30.10,South,180,1.2,0.0,58,0.00,CLR,,0.00,WeatherDisplay:10.37,2013-05-15 11:02:00,
2013-05-15 04:07:00,44.2,30.4,30.10,South,180,0.0,0.0,58,0.00,CLR,,0.00,WeatherDisplay:10.37,2013-05-15 11:07:00,
2013-05-15 04:12:00,44.4,30.6,30.10,South,180,1.2,0.0,58,0.00,CLR,,0.00,WeatherDisplay:10.37,2013-05-15 11:12:00,
2013-05-15 04:18:00,44.2,30.8,30.10,SW,225,1.2,0.0,59,0.00,CLR,,0.00,WeatherDisplay:10.37,2013-05-15 11:18:00,
2013-05-15 04:23:00,44.2,30.4,30.10,SW,225,0.0,0.0,58,0.00,CLR,,0.00,WeatherDisplay:10.37,2013-05-15 11:23:00,
2013-05-15 04:28:00,44.2,30.8,30.09,West,270,1.2,0.0,59,0.00,CLR,,0.00,WeatherDisplay:10.37,2013-05-15 11:28:00,
2013-05-15 04:33:00,41.2,26.7,30.25,SW,225,1.2,0.0,56,0.00,CLR,,0.00,WeatherDisplay:10.37,2013-05-15 11:33:00,
2013-05-15 04:38:00,44.6,31.6,30.09,West,270,0.0,0.0,60,0.00,CLR,,0.00,WeatherDisplay:10.37,2013-05-15 11:38:00,
2013-05-15 04:43:00,45.0,31.9,30.09,West,270,0.0,0.0,60,0.00,CLR,,0.00,WeatherDisplay:10.37,2013-05-15 11:43:00,
2013-05-15 04:50:00,45.1,32.1,30.09,South,180,1.2,1.2,60,0.00,CLR,,0.00,WeatherDisplay:10.37,2013-05-15 11:50:00,
2013-05-15 04:55:00,45.0,31.9,30.09,South,180,1.2,0.0,60,0.00,CLR,,0.00,WeatherDisplay:10.37,2013-05-15 11:55:00,
2013-05-15 05:00:00,45.0,31.5,30.09,South,180,0.0,0.0,59,0.00,CLR,,0.00,WeatherDisplay:10.37,2013-05-15 12:00:00,
2013-05-15 05:05:00,45.0,31.9,30.09,SW,225,1.2,0.0,60,0.00,CLR,,0.00,WeatherDisplay:10.37,2013-05-15 12:05:00,
2013-05-15 05:10:00,44.8,31.3,30.09,South,180,1.2,0.0,59,0.00,CLR,,0.00,WeatherDisplay:10.37,2013-05-15 12:10:00,
2013-05-15 05:15:00,44.8,31.3,30.09,South,180,0.0,0.0,59,0.00,CLR,,0.00,WeatherDisplay:10.37,2013-05-15 12:15:00,
2013-05-15 05:20:00,44.8,31.7,30.09,South,180,1.2,1.2,60,0.00,CLR,,0.00,WeatherDisplay:10.37,2013-05-15 12:20:00,
2013-05-15 05:25:00,44.8,31.7,30.08,NW,315,0.0,0.0,60,0.00,CLR,,0.00,WeatherDisplay:10.37,2013-05-15 12:25:00,
2013-05-15 05:30:00,45.0,31.9,30.08,NE,45,1.2,0.0,60,0.00,CLR,,0.00,WeatherDisplay:10.37,2013-05-15 12:30:00,
2013-05-15 05:35:00,45.0,31.9,30.08,West,270,1.2,0.0,60,0.00,CLR,,0.00,WeatherDisplay:10.37,2013-05-15 12:35:00,
2013-05-15 05:40:00,45.0,31.9,30.09,SW,225,0.0,0.0,60,0.00,CLR,,0.00,WeatherDisplay:10.37,2013-05-15 12:40:00,
2013-05-15 05:46:00,45.0,31.9,30.09,SW,225,1.2,1.2,60,0.00,CLR,,0.00,WeatherDisplay:10.37,2013-05-15 12:46:00,
2013-05-15 05:51:00,44.8,31.7,30.09,SW,225,1.2,0.0,60,0.00,CLR,,0.00,WeatherDisplay:10.37,2013-05-15 12:51:00,
2013-05-15 05:56:00,44.8,31.7,30.09,SW,225,0.0,0.0,60,0.00,CLR,,0.00,WeatherDisplay:10.37,2013-05-15 12:56:00,
2013-05-15 06:01:00,45.0,31.9,30.09,SW,225,0.0,0.0,60,0.00,CLR,,0.00,WeatherDisplay:10.37,2013-05-15 13:01:00,
2013-05-15 06:06:00,45.0,31.9,30.09,SW,225,0.0,0.0,60,0.00,CLR,,0.00,WeatherDisplay:10.37,2013-05-15 13:06:00,
2013-05-15 06:11:00,45.1,32.1,30.09,SW,225,0.0,0.0,60,0.00,CLR,,0.00,WeatherDisplay:10.37,2013-05-15 13:11:00,
2013-05-15 06:16:00,45.3,32.2,30.09,South,180,1.2,0.0,60,0.00,CLR,,0.00,WeatherDisplay:10.37,2013-05-15 13:16:00,
2013-05-15 06:22:00,45.3,32.7,30.09,South,180,0.0,0.0,61,0.00,CLR,,0.00,WeatherDisplay:10.37,2013-05-15 13:22:00,
2013-05-15 06:27:00,45.5,32.4,30.09,West,270,1.2,0.0,60,0.00,CLR,,0.00,WeatherDisplay:10.37,2013-05-15 13:27:00,
2013-05-15 06:32:00,45.7,32.6,30.09,West,270,0.0,0.0,60,0.00,CLR,,0.00,WeatherDisplay:10.37,2013-05-15 13:32:00,
2013-05-15 06:37:00,45.9,33.2,30.09,South,180,1.2,0.0,61,0.00,CLR,,0.00,WeatherDisplay:10.37,2013-05-15 13:37:00,
2013-05-15 06:42:00,45.9,32.7,30.09,South,180,0.0,0.0,60,0.00,CLR,,0.00,WeatherDisplay:10.37,2013-05-15 13:42:00,
2013-05-15 06:47:00,46.0,33.3,30.09,South,180,0.0,0.0,61,0.00,CLR,,0.00,WeatherDisplay:10.37,2013-05-15 13:47:00,
2013-05-15 06:53:00,46.2,33.5,30.09,SW,225,0.0,0.0,61,0.00,CLR,,0.00,WeatherDisplay:10.37,2013-05-15 13:53:00,
2013-05-15 06:59:00,46.6,33.8,30.09,SW,225,1.2,1.2,61,0.00,CLR,,0.00,WeatherDisplay:10.37,2013-05-15 13:59:00,
2013-05-15 07:04:00,46.8,33.6,30.09,West,270,1.2,0.0,60,0.00,CLR,,0.00,WeatherDisplay:10.37,2013-05-15 14:04:00,
2013-05-15 07:09:00,47.1,34.4,30.09,South,180,1.2,0.0,61,0.00,CLR,,0.00,WeatherDisplay:10.37,2013-05-15 14:09:00,
2013-05-15 07:15:00,47.5,34.3,30.10,South,180,0.0,0.0,60,0.00,CLR,,0.00,WeatherDisplay:10.37,2013-05-15 14:15:00,
2013-05-15 07:20:00,47.7,34.4,30.09,South,180,0.0,0.0,60,0.00,CLR,,0.00,WeatherDisplay:10.37,2013-05-15 14:20:00,
2013-05-15 07:25:00,47.8,34.2,30.09,South,180,1.2,0.0,59,0.00,CLR,,0.00,WeatherDisplay:10.37,2013-05-15 14:25:00,
2013-05-15 07:30:00,48.2,34.5,30.09,South,180,1.2,0.0,59,0.00,CLR,,0.00,WeatherDisplay:10.37,2013-05-15 14:30:00,
2013-05-15 07:35:00,48.4,34.7,30.10,SW,225,0.0,0.0,59,0.00,CLR,,0.00,WeatherDisplay:10.37,2013-05-15 14:35:00,
2013-05-15 07:41:00,48.9,34.8,30.10,SW,225,1.2,0.0,58,0.00,CLR,,0.00,WeatherDisplay:10.37,2013-05-15 14:41:00,
2013-05-15 07:46:00,48.9,34.3,30.09,South,180,1.2,0.0,57,0.00,CLR,,0.00,WeatherDisplay:10.37,2013-05-15 14:46:00,
2013-05-15 07:53:00,49.3,34.7,30.10,SW,225,1.2,0.0,57,0.00,CLR,,0.00,WeatherDisplay:10.37,2013-05-15 14:53:00,
2013-05-15 07:58:00,49.5,34.4,30.09,West,270,1.2,0.0,56,0.00,CLR,,0.00,WeatherDisplay:10.37,2013-05-15 14:58:00,
2013-05-15 08:04:00,50.0,34.9,30.10,SW,225,1.2,0.0,56,0.00,CLR,,0.00,WeatherDisplay:10.37,2013-05-15 15:04:00,
2013-05-15 08:09:00,50.2,34.6,30.10,West,270,1.2,0.0,55,0.00,CLR,,0.00,WeatherDisplay:10.37,2013-05-15 15:09:00,
2013-05-15 08:14:00,50.4,33.9,30.10,SW,225,1.2,1.2,53,0.00,CLR,,0.00,WeatherDisplay:10.37,2013-05-15 15:14:00,
2013-05-15 08:19:00,50.5,33.1,30.10,SW,225,1.2,0.0,51,0.00,CLR,,0.00,WeatherDisplay:10.37,2013-05-15 15:19:00,
2013-05-15 08:24:00,50.7,33.2,30.10,SW,225,1.2,0.0,51,0.00,CLR,,0.00,WeatherDisplay:10.37,2013-05-15 15:24:00,
2013-05-15 08:29:00,51.6,34.1,30.11,SW,225,1.2,0.0,51,0.00,CLR,,0.00,WeatherDisplay:10.37,2013-05-15 15:29:00,
2013-05-15 08:34:00,52.5,35.4,30.10,West,270,1.2,0.0,52,0.00,CLR,,0.00,WeatherDisplay:10.37,2013-05-15 15:34:00,
2013-05-15 08:39:00,53.2,34.6,30.10,NE,45,1.2,0.0,49,0.00,CLR,,0.00,WeatherDisplay:10.37,2013-05-15 15:39:00,
2013-05-15 08:45:00,53.4,30.9,30.10,South,180,1.2,1.2,42,0.00,CLR,,0.00,WeatherDisplay:10.37,2013-05-15 15:45:00,
2013-05-15 08:50:00,53.6,27.3,30.11,South,180,1.2,0.0,36,0.00,CLR,,0.00,WeatherDisplay:10.37,2013-05-15 15:50:00,
2013-05-15 08:55:00,54.1,24.9,30.11,South,180,1.2,0.0,32,0.00,CLR,,0.00,WeatherDisplay:10.37,2013-05-15 15:55:00,
2013-05-15 09:02:00,54.9,21.5,30.11,South,180,1.2,0.0,27,0.00,CLR,,0.00,WeatherDisplay:10.37,2013-05-15 16:02:00,
2013-05-15 09:07:00,54.9,16.7,30.11,South,180,1.2,0.0,22,0.00,CLR,,0.00,WeatherDisplay:10.37,2013-05-15 16:07:00,
2013-05-15 09:12:00,55.0,15.8,30.11,South,180,0.0,0.0,21,0.00,CLR,,0.00,WeatherDisplay:10.37,2013-05-15 16:12:00,
2013-05-15 09:17:00,54.9,15.6,30.11,South,180,1.2,0.0,21,0.00,CLR,,0.00,WeatherDisplay:10.37,2013-05-15 16:17:00,
2013-05-15 09:23:00,54.7,15.5,30.10,East,90,1.2,0.0,21,0.00,CLR,,0.00,WeatherDisplay:10.37,2013-05-15 16:23:00,
2013-05-15 09:28:00,54.7,16.5,30.10,South,180,4.6,4.6,22,0.00,CLR,,0.00,WeatherDisplay:10.37,2013-05-15 16:28:00,
2013-05-15 09:33:00,54.0,18.9,30.10,South,180,4.6,4.6,25,0.01,RA,,0.01,WeatherDisplay:10.37,2013-05-15 16:33:00,
2013-05-15 09:38:00,53.6,22.9,30.10,SE,135,3.5,3.5,30,0.01,RA,,0.01,WeatherDisplay:10.37,2013-05-15 16:38:00,
2013-05-15 09:46:00,54.0,22.4,30.11,SE,135,5.8,5.8,29,0.01,CLR,,0.01,WeatherDisplay:10.37,2013-05-15 16:46:00,
2013-05-15 09:51:00,54.5,25.2,30.11,South,180,3.5,0.0,32,0.01,CLR,,0.01,WeatherDisplay:10.37,2013-05-15 16:51:00,
2013-05-15 09:56:00,55.4,21.9,30.10,South,180,5.8,5.8,27,0.01,CLR,,0.01,WeatherDisplay:10.37,2013-05-15 16:56:00,
2013-05-15 10:02:00,55.9,22.4,30.10,SW,225,5.8,5.8,27,0.01,CLR,,0.01,WeatherDisplay:10.37,2013-05-15 17:02:00,
2013-05-15 10:07:00,56.7,17.1,30.10,SW,225,5.8,5.8,21,0.01,CLR,,0.01,WeatherDisplay:10.37,2013-05-15 17:07:00,
2013-05-15 10:12:00,56.8,12.4,30.10,SW,225,5.8,5.8,17,0.01,CLR,,0.01,WeatherDisplay:10.37,2013-05-15 17:12:00,
2013-05-15 10:18:00,58.1,3.8,30.10,East,90,3.5,3.5,11,0.01,CLR,,0.01,WeatherDisplay:10.37,2013-05-15 17:18:00,
2013-05-15 10:23:00,58.6,4.2,30.10,South,180,7.6,7.6,11,0.01,CLR,,0.01,WeatherDisplay:10.37,2013-05-15 17:23:00,
2013-05-15 10:28:00,59.0,4.5,30.10,South,180,4.6,4.6,11,0.01,CLR,,0.01,WeatherDisplay:10.37,2013-05-15 17:28:00,
2013-05-15 10:34:00,59.5,4.9,30.10,South,180,5.8,5.8,11,0.00,CLR,,0.01,WeatherDisplay:10.37,2013-05-15 17:34:00,
2013-05-15 10:39:00,59.2,4.6,30.10,East,90,3.5,3.5,11,0.00,CLR,,0.01,WeatherDisplay:10.37,2013-05-15 17:39:00,
2013-05-15 10:44:00,60.3,5.4,30.09,South,180,2.3,2.3,11,0.00,CLR,,0.01,WeatherDisplay:10.37,2013-05-15 17:44:00,
2013-05-15 10:50:00,60.8,5.9,30.09,South,180,3.5,3.5,11,0.00,CLR,,0.01,WeatherDisplay:10.37,2013-05-15 17:50:00,
2013-05-15 10:55:00,61.7,6.6,30.09,SE,135,5.8,5.8,11,0.00,CLR,,0.01,WeatherDisplay:10.37,2013-05-15 17:55:00,
2013-05-15 11:00:00,63.3,7.8,30.09,NE,45,5.8,5.8,11,0.00,CLR,,0.01,WeatherDisplay:10.37,2013-05-15 18:00:00,
2013-05-15 11:06:00,64.2,8.5,30.09,SE,135,3.5,3.5,11,0.00,CLR,,0.01,WeatherDisplay:10.37,2013-05-15 18:06:00,
2013-05-15 11:11:00,64.4,8.7,30.09,South,180,5.8,5.8,11,0.00,CLR,,0.01,WeatherDisplay:10.37,2013-05-15 18:11:00,
2013-05-15 11:16:00,64.8,8.9,30.09,SE,135,3.5,3.5,11,0.00,CLR,,0.01,WeatherDisplay:10.37,2013-05-15 18:16:00,
2013-05-15 11:21:00,64.4,8.7,30.09,SE,135,7.6,7.6,11,0.00,CLR,,0.01,WeatherDisplay:10.37,2013-05-15 18:21:00,
2013-05-15 11:26:00,63.7,8.1,30.09,East,90,5.8,5.8,11,0.00,CLR,,0.01,WeatherDisplay:10.37,2013-05-15 18:26:00,
2013-05-15 11:31:00,63.0,7.5,30.09,SSE,158,11.5,11.5,11,0.00,CLR,,0.01,WeatherDisplay:10.37,2013-05-15 18:31:00,
2013-05-15 11:36:00,63.9,8.2,30.09,East,90,4.6,4.6,11,0.00,CLR,,0.01,WeatherDisplay:10.37,2013-05-15 18:36:00,
2013-05-15 11:41:00,64.0,8.4,30.09,South,180,5.8,5.8,11,0.00,CLR,,0.01,WeatherDisplay:10.37,2013-05-15 18:41:00,
2013-05-15 11:46:00,64.6,8.8,30.08,SSE,158,9.8,9.8,11,0.00,CLR,,0.01,WeatherDisplay:10.37,2013-05-15 18:46:00,
2013-05-15 11:51:00,64.4,8.7,30.08,SE,135,5.8,5.8,11,0.00,CLR,,0.01,WeatherDisplay:10.37,2013-05-15 18:51:00,
2013-05-15 11:57:00,64.8,8.9,30.09,SSE,158,5.8,5.8,11,0.00,CLR,,0.01,WeatherDisplay:10.37,2013-05-15 18:57:00,
2013-05-15 12:02:00,64.6,8.8,30.08,East,90,3.5,3.5,11,0.00,CLR,,0.01,WeatherDisplay:10.37,2013-05-15 19:02:00,
2013-05-15 12:07:00,64.2,8.5,30.09,NE,45,6.9,6.9,11,0.00,CLR,,0.01,WeatherDisplay:10.37,2013-05-15 19:07:00,
2013-05-15 12:12:00,65.5,9.5,30.08,South,180,5.8,5.8,11,0.00,CLR,,0.01,WeatherDisplay:10.37,2013-05-15 19:12:00,
2013-05-15 12:17:00,65.3,9.4,30.08,SW,225,12.7,12.7,11,0.00,CLR,,0.01,WeatherDisplay:10.37,2013-05-15 19:17:00,
2013-05-15 12:23:00,63.7,8.1,30.08,South,180,8.1,8.1,11,0.00,CLR,,0.01,WeatherDisplay:10.37,2013-05-15 19:23:00,
2013-05-15 12:28:00,64.0,8.4,30.08,South,180,9.2,9.2,11,0.00,CLR,,0.01,WeatherDisplay:10.37,2013-05-15 19:28:00,
2013-05-15 12:33:00,63.7,8.1,30.08,SW,225,8.1,8.1,11,0.00,CLR,,0.01,WeatherDisplay:10.37,2013-05-15 19:33:00,
2013-05-15 12:38:00,64.0,8.4,30.08,SE,135,5.8,5.8,11,0.00,CLR,,0.01,WeatherDisplay:10.37,2013-05-15 19:38:00,
2013-05-15 12:43:00,64.8,8.9,30.08,North,0,6.9,6.9,11,0.00,CLR,,0.01,WeatherDisplay:10.37,2013-05-15 19:43:00,
2013-05-15 12:48:00,66.0,9.9,30.08,East,90,9.2,0.0,11,0.00,CLR,,0.01,WeatherDisplay:10.37,2013-05-15 19:48:00,
2013-05-15 12:53:00,66.7,10.5,30.07,South,180,5.8,5.8,11,0.00,CLR,,0.01,WeatherDisplay:10.37,2013-05-15 19:53:00,
2013-05-15 12:58:00,65.8,9.8,30.07,South,180,8.1,8.1,11,0.00,CLR,,0.01,WeatherDisplay:10.37,2013-05-15 19:58:00,
2013-05-15 13:03:00,65.8,9.8,30.07,SE,135,6.9,6.9,11,0.00,CLR,,0.01,WeatherDisplay:10.37,2013-05-15 20:03:00,
2013-05-15 13:08:00,67.1,10.8,30.07,South,180,5.8,5.8,11,0.00,CLR,,0.01,WeatherDisplay:10.37,2013-05-15 20:08:00,
2013-05-15 13:13:00,68.0,11.5,30.07,SSE,158,6.9,6.9,11,0.00,CLR,,0.01,WeatherDisplay:10.37,2013-05-15 20:13:00,
2013-05-15 13:18:00,68.9,12.2,30.07,South,180,6.9,6.9,11,0.00,CLR,,0.01,WeatherDisplay:10.37,2013-05-15 20:18:00,
2013-05-15 13:23:00,68.5,11.9,30.07,NE,45,6.9,6.9,11,0.00,CLR,,0.01,WeatherDisplay:10.37,2013-05-15 20:23:00,
2013-05-15 13:28:00,68.7,12.0,30.07,South,180,5.8,5.8,11,0.00,CLR,,0.01,WeatherDisplay:10.37,2013-05-15 20:28:00,
2013-05-15 13:33:00,68.9,12.2,30.07,SW,225,5.8,5.8,11,0.00,CLR,,0.01,WeatherDisplay:10.37,2013-05-15 20:33:00,
2013-05-15 13:38:00,69.1,12.3,30.07,South,180,4.6,4.6,11,0.00,CLR,,0.01,WeatherDisplay:10.37,2013-05-15 20:38:00,
2013-05-15 13:43:00,68.2,11.6,30.06,East,90,8.1,0.0,11,0.00,CLR,,0.01,WeatherDisplay:10.37,2013-05-15 20:43:00,
2013-05-15 13:49:00,68.5,11.9,30.06,SW,225,5.8,5.8,11,0.00,CLR,,0.01,WeatherDisplay:10.37,2013-05-15 20:49:00,
2013-05-15 13:54:00,67.5,11.0,30.06,SW,225,4.6,4.6,11,0.00,CLR,,0.01,WeatherDisplay:10.37,2013-05-15 20:54:00,
2013-05-15 13:59:00,65.8,9.8,30.07,SSW,202,10.4,10.4,11,0.00,CLR,,0.01,WeatherDisplay:10.37,2013-05-15 20:59:00,
2013-05-15 14:04:00,66.0,9.9,30.06,SW,225,5.8,5.8,11,0.00,CLR,,0.01,WeatherDisplay:10.37,2013-05-15 21:04:00,
2013-05-15 14:09:00,66.4,10.2,30.06,SW,225,10.4,10.4,11,0.00,CLR,,0.01,WeatherDisplay:10.37,2013-05-15 21:09:00,
2013-05-15 14:14:00,66.4,10.2,30.06,SW,225,5.8,5.8,11,0.00,CLR,,0.01,WeatherDisplay:10.37,2013-05-15 21:14:00,
2013-05-15 14:19:00,65.8,9.8,30.06,SW,225,12.7,12.7,11,0.00,CLR,,0.01,WeatherDisplay:10.37,2013-05-15 21:19:00,
2013-05-15 14:24:00,65.7,9.6,30.07,SW,225,8.1,8.1,11,0.00,CLR,,0.01,WeatherDisplay:10.37,2013-05-15 21:24:00,
2013-05-15 14:29:00,65.3,9.4,30.07,SW,225,13.8,13.8,11,0.00,CLR,,0.01,WeatherDisplay:10.37,2013-05-15 21:29:00,
2013-05-15 14:34:00,64.8,8.9,30.06,SW,225,15.0,15.0,11,0.00,CLR,,0.01,WeatherDisplay:10.37,2013-05-15 21:34:00,
2013-05-15 14:39:00,64.9,9.1,30.06,West,270,5.8,5.8,11,0.00,CLR,,0.01,WeatherDisplay:10.37,2013-05-15 21:39:00,
2013-05-15 14:44:00,64.4,8.7,30.06,SW,225,13.8,13.8,11,0.00,CLR,,0.01,WeatherDisplay:10.37,2013-05-15 21:44:00,
2013-05-15 14:49:00,64.0,8.4,30.06,SW,225,13.8,13.8,11,0.00,CLR,,0.01,WeatherDisplay:10.37,2013-05-15 21:49:00,
2013-05-15 14:54:00,64.2,8.5,30.06,SW,225,10.4,10.4,11,0.00,CLR,,0.01,WeatherDisplay:10.37,2013-05-15 21:54:00,
2013-05-15 14:59:00,64.6,8.8,30.06,West,270,4.6,4.6,11,0.00,CLR,,0.01,WeatherDisplay:10.37,2013-05-15 21:59:00,
2013-05-15 15:04:00,65.8,9.8,30.06,SW,225,6.9,6.9,11,0.00,CLR,,0.01,WeatherDisplay:10.37,2013-05-15 22:04:00,
2013-05-15 15:09:00,66.9,10.6,30.06,SW,225,6.9,6.9,11,0.00,CLR,,0.01,WeatherDisplay:10.37,2013-05-15 22:09:00,
2013-05-15 15:14:00,66.9,10.6,30.06,SW,225,12.7,12.7,11,0.00,CLR,,0.01,WeatherDisplay:10.37,2013-05-15 22:14:00,
2013-05-15 15:20:00,67.3,10.9,30.06,SW,225,12.7,12.7,11,0.00,CLR,,0.01,WeatherDisplay:10.37,2013-05-15 22:20:00,
2013-05-15 15:25:00,66.6,10.3,30.06,SW,225,9.2,9.2,11,0.00,CLR,,0.01,WeatherDisplay:10.37,2013-05-15 22:25:00,
2013-05-15 15:30:00,66.7,10.5,30.06,West,270,10.4,10.4,11,0.00,CLR,,0.01,WeatherDisplay:10.37,2013-05-15 22:30:00,
2013-05-15 15:35:00,65.8,9.8,30.06,SW,225,11.5,11.5,11,0.00,CLR,,0.01,WeatherDisplay:10.37,2013-05-15 22:35:00,
2013-05-15 15:40:00,65.3,9.4,30.06,South,180,12.7,12.7,11,0.00,CLR,,0.01,WeatherDisplay:10.37,2013-05-15 22:40:00,
2013-05-15 15:46:00,65.5,9.5,30.06,South,180,8.1,8.1,11,0.00,CLR,,0.01,WeatherDisplay:10.37,2013-05-15 22:46:00,
2013-05-15 15:51:00,64.4,8.7,30.06,South,180,17.3,17.3,11,0.00,CLR,,0.01,WeatherDisplay:10.37,2013-05-15 22:51:00,
2013-05-15 15:56:00,63.7,8.1,30.06,SW,225,10.4,10.4,11,0.00,CLR,,0.01,WeatherDisplay:10.37,2013-05-15 22:56:00,
2013-05-15 16:01:00,63.1,7.7,30.06,SW,225,12.7,12.7,11,0.00,CLR,,0.01,WeatherDisplay:10.37,2013-05-15 23:01:00,
2013-05-15 16:06:00,63.1,7.7,30.06,SW,225,12.7,12.7,11,0.00,CLR,,0.01,WeatherDisplay:10.37,2013-05-15 23:06:00,
2013-05-15 16:11:00,63.3,7.8,30.06,SW,225,15.0,15.0,11,0.00,CLR,,0.01,WeatherDisplay:10.37,2013-05-15 23:11:00,
2013-05-15 16:16:00,63.1,7.7,30.06,SW,225,13.8,13.8,11,0.00,CLR,,0.01,WeatherDisplay:10.37,2013-05-15 23:16:00,
2013-05-15 16:21:00,63.1,7.7,30.06,West,270,9.2,9.2,11,0.00,CLR,,0.01,WeatherDisplay:10.37,2013-05-15 23:21:00,
2013-05-15 16:26:00,63.0,7.5,30.06,West,270,12.7,12.7,11,0.00,CLR,,0.01,WeatherDisplay:10.37,2013-05-15 23:26:00,
2013-05-15 16:31:00,62.8,7.4,30.06,SW,225,5.8,5.8,11,0.00,CLR,,0.01,WeatherDisplay:10.37,2013-05-15 23:31:00,
2013-05-15 16:36:00,63.0,7.5,30.06,South,180,5.8,6.0,11,0.00,CLR,,0.01,WeatherDisplay:10.37,2013-05-15 23:36:00,
2013-05-15 16:41:00,63.0,7.5,30.06,SW,225,12.7,12.7,11,0.00,CLR,,0.01,WeatherDisplay:10.37,2013-05-15 23:41:00,
2013-05-15 16:47:00,63.1,7.7,30.06,SW,225,8.1,8.1,11,0.00,CLR,,0.01,WeatherDisplay:10.37,2013-05-15 23:47:00,
2013-05-15 16:52:00,63.1,7.7,30.05,SW,225,3.5,3.5,11,0.00,CLR,,0.01,WeatherDisplay:10.37,2013-05-15 23:52:00,
2013-05-15 16:57:00,63.3,7.8,30.05,SW,225,6.9,6.9,11,0.00,CLR,,0.01,WeatherDisplay:10.37,2013-05-15 23:57:00,
2013-05-15 17:02:00,62.8,7.4,30.05,SW,225,9.2,9.2,11,0.00,CLR,,0.01,WeatherDisplay:10.37,2013-05-16 00:02:00,
2013-05-15 17:08:00,62.8,7.4,30.05,SSW,202,12.7,12.7,11,0.00,CLR,,0.01,WeatherDisplay:10.37,2013-05-16 00:08:00,
2013-05-15 17:13:00,62.4,7.1,30.05,South,180,17.3,17.3,11,0.00,CLR,,0.01,WeatherDisplay:10.37,2013-05-16 00:13:00,
2013-05-15 17:18:00,62.8,7.4,30.04,SW,225,8.1,8.1,11,0.00,CLR,,0.01,WeatherDisplay:10.37,2013-05-16 00:18:00,
2013-05-15 17:23:00,62.6,7.3,30.05,SW,225,15.9,15.9,11,0.00,CLR,,0.01,WeatherDisplay:10.37,2013-05-16 00:23:00,
2013-05-15 17:28:00,62.6,7.3,30.04,SW,225,9.2,9.2,11,0.00,CLR,,0.01,WeatherDisplay:10.37,2013-05-16 00:28:00,
2013-05-15 17:33:00,62.8,7.4,30.04,South,180,12.7,12.7,11,0.00,CLR,,0.01,WeatherDisplay:10.37,2013-05-16 00:33:00,
2013-05-15 17:39:00,62.6,7.3,30.05,SW,225,13.8,13.8,11,0.00,CLR,,0.01,WeatherDisplay:10.37,2013-05-16 00:39:00,
2013-05-15 17:44:00,62.4,7.1,30.04,SW,225,9.2,9.2,11,0.00,CLR,,0.01,WeatherDisplay:10.37,2013-05-16 00:44:00,
2013-05-15 17:49:00,61.9,6.7,30.04,SW,225,15.0,15.0,11,0.00,CLR,,0.01,WeatherDisplay:10.37,2013-05-16 00:49:00,
2013-05-15 17:54:00,62.2,7.0,30.03,West,270,5.8,5.8,11,0.00,CLR,,0.01,WeatherDisplay:10.37,2013-05-16 00:54:00,
2013-05-15 17:59:00,62.4,7.1,30.04,West,270,5.8,5.8,11,0.00,CLR,,0.01,WeatherDisplay:10.37,2013-05-16 00:59:00,
2013-05-15 18:04:00,62.2,7.0,30.04,SW,225,9.2,9.2,11,0.00,CLR,,0.01,WeatherDisplay:10.37,2013-05-16 01:04:00,
2013-05-15 18:09:00,61.5,6.4,30.04,SW,225,9.2,9.2,11,0.00,CLR,,0.01,WeatherDisplay:10.37,2013-05-16 01:09:00,
2013-05-15 18:14:00,61.3,6.3,30.04,SW,225,3.5,3.5,11,0.00,CLR,,0.01,WeatherDisplay:10.37,2013-05-16 01:14:00,
2013-05-15 18:20:00,61.2,6.1,30.04,SW,225,9.2,9.2,11,0.00,CLR,,0.01,WeatherDisplay:10.37,2013-05-16 01:20:00,
2013-05-15 18:25:00,61.5,6.4,30.03,SW,225,11.5,11.5,11,0.00,CLR,,0.01,WeatherDisplay:10.37,2013-05-16 01:25:00,
2013-05-15 18:30:00,63.1,7.7,30.03,West,270,3.5,3.5,11,0.00,CLR,,0.01,WeatherDisplay:10.37,2013-05-16 01:30:00,
2013-05-15 18:35:00,63.5,8.0,30.04,SW,225,11.5,11.5,11,0.00,CLR,,0.01,WeatherDisplay:10.37,2013-05-16 01:35:00,
2013-05-15 18:40:00,63.9,8.2,30.03,South,180,8.1,8.1,11,0.00,CLR,,0.01,WeatherDisplay:10.37,2013-05-16 01:40:00,
2013-05-15 18:45:00,63.0,7.5,30.03,SW,225,10.4,10.4,11,0.00,CLR,,0.01,WeatherDisplay:10.37,2013-05-16 01:45:00,
2013-05-15 18:50:00,62.6,7.3,30.03,SW,225,4.6,4.6,11,0.00,CLR,,0.01,WeatherDisplay:10.37,2013-05-16 01:50:00,
2013-05-15 18:56:00,62.1,6.8,30.03,WNW,292,5.8,5.8,11,0.00,CLR,,0.01,WeatherDisplay:10.37,2013-05-16 01:56:00,
2013-05-15 19:01:00,61.0,6.0,30.03,SW,225,10.4,10.4,11,0.00,CLR,,0.01,WeatherDisplay:10.37,2013-05-16 02:01:00,
2013-05-15 19:06:00,60.1,5.3,30.03,SW,225,9.2,9.2,11,0.00,CLR,,0.01,WeatherDisplay:10.37,2013-05-16 02:06:00,
2013-05-15 19:12:00,59.4,4.7,30.03,SW,225,9.2,9.2,11,0.00,CLR,,0.01,WeatherDisplay:10.37,2013-05-16 02:12:00,
2013-05-15 19:17:00,58.8,4.3,30.03,South,180,13.8,13.8,11,0.00,CLR,,0.01,WeatherDisplay:10.37,2013-05-16 02:17:00,
2013-05-15 19:22:00,58.6,4.2,30.03,SW,225,6.9,6.9,11,0.00,CLR,,0.01,WeatherDisplay:10.37,2013-05-16 02:22:00,
2013-05-15 19:27:00,58.5,4.0,30.02,NNE,22,10.4,10.4,11,0.00,CLR,,0.01,WeatherDisplay:10.37,2013-05-16 02:27:00,
2013-05-15 19:32:00,58.3,3.9,30.03,SW,225,10.4,10.4,11,0.00,CLR,,0.01,WeatherDisplay:10.37,2013-05-16 02:32:00,
2013-05-15 19:38:00,58.3,3.9,30.03,South,180,8.1,8.1,11,0.00,CLR,,0.01,WeatherDisplay:10.37,2013-05-16 02:38:00,
2013-05-15 19:44:00,58.1,3.8,30.03,South,180,4.6,4.6,11,0.00,CLR,,0.01,WeatherDisplay:10.37,2013-05-16 02:44:00,
2013-05-15 19:49:00,57.9,3.6,30.02,South,180,8.1,8.1,11,0.00,CLR,,0.01,WeatherDisplay:10.37,2013-05-16 02:49:00,
2013-05-15 19:54:00,57.7,3.5,30.03,SW,225,6.9,6.9,11,0.00,CLR,,0.01,WeatherDisplay:10.37,2013-05-16 02:54:00,
2013-05-15 19:59:00,57.6,3.3,30.02,SW,225,6.9,6.9,11,0.00,CLR,,0.01,WeatherDisplay:10.37,2013-05-16 02:59:00,
2013-05-15 20:04:00,57.6,3.3,30.02,South,180,5.8,5.8,11,0.00,CLR,,0.01,WeatherDisplay:10.37,2013-05-16 03:04:00,
2013-05-15 20:09:00,57.4,3.2,30.02,South,180,4.6,4.6,11,0.00,CLR,,0.01,WeatherDisplay:10.37,2013-05-16 03:09:00,
2013-05-15 20:14:00,57.2,3.1,30.02,SW,225,10.4,10.4,11,0.00,CLR,,0.01,WeatherDisplay:10.37,2013-05-16 03:14:00,
2013-05-15 20:19:00,57.2,3.1,30.02,East,90,2.3,2.3,11,0.00,CLR,,0.01,WeatherDisplay:10.37,2013-05-16 03:19:00,
2013-05-15 20:24:00,57.2,3.1,30.02,SSE,158,3.5,3.5,11,0.00,CLR,,0.01,WeatherDisplay:10.37,2013-05-16 03:24:00,
2013-05-15 20:29:00,57.2,3.1,30.02,SW,225,3.5,3.5,11,0.00,CLR,,0.01,WeatherDisplay:10.37,2013-05-16 03:29:00,
2013-05-15 20:34:00,57.2,3.1,30.02,South,180,3.5,3.5,11,0.00,CLR,,0.01,WeatherDisplay:10.37,2013-05-16 03:34:00,
2013-05-15 20:39:00,57.0,2.9,30.02,South,180,2.3,0.0,11,0.00,CLR,,0.01,WeatherDisplay:10.37,2013-05-16 03:39:00,
2013-05-15 20:45:00,57.0,2.9,30.02,East,90,1.2,1.2,11,0.00,CLR,,0.01,WeatherDisplay:10.37,2013-05-16 03:45:00,
2013-05-15 20:50:00,56.8,2.8,30.01,South,180,5.8,5.8,11,0.00,CLR,,0.01,WeatherDisplay:10.37,2013-05-16 03:50:00,
2013-05-15 20:55:00,56.7,2.6,30.02,South,180,4.6,4.6,11,0.00,CLR,,0.01,WeatherDisplay:10.37,2013-05-16 03:55:00,
2013-05-15 21:00:00,56.5,0.4,30.01,South,180,3.5,3.5,10,0.00,CLR,,0.01,WeatherDisplay:10.37,2013-05-16 04:00:00,
2013-05-15 21:01:00,56.5,0.4,30.01,SW,225,3.5,3.5,10,0.00,CLR,,0.01,WeatherDisplay:10.37,2013-05-16 04:01:00,
2013-05-15 21:03:00,56.5,0.4,30.01,South,180,2.3,2.3,10,0.00,CLR,,0.01,WeatherDisplay:10.37,2013-05-16 04:03:00,
2013-05-15 21:08:00,56.1,4.1,30.01,SE,135,1.2,0.0,12,0.00,CLR,,0.01,WeatherDisplay:10.37,2013-05-16 04:08:00,
2013-05-15 21:13:00,56.1,7.5,30.01,SE,135,0.0,0.0,14,0.00,CLR,,0.01,WeatherDisplay:10.37,2013-05-16 04:13:00,
2013-05-15 21:18:00,55.9,11.7,30.01,SW,225,1.2,1.2,17,0.00,CLR,,0.01,WeatherDisplay:10.37,2013-05-16 04:18:00,
2013-05-15 21:23:00,55.6,19.3,30.01,SW,225,2.3,2.3,24,0.00,CLR,,0.01,WeatherDisplay:10.37,2013-05-16 04:23:00,
2013-05-15 21:28:00,55.4,21.0,30.01,NW,315,1.2,0.0,26,0.00,CLR,,0.01,WeatherDisplay:10.37,2013-05-16 04:28:00,
2013-05-15 21:33:00,55.2,22.6,30.01,South,180,1.2,0.0,28,0.00,CLR,,0.01,WeatherDisplay:10.37,2013-05-16 04:33:00,
2013-05-15 21:38:00,59.0,27.6,30.05,South,180,3.5,3.5,30,0.00,CLR,,0.01,WeatherDisplay:10.37,2013-05-16 04:38:00,
2013-05-15 21:43:00,54.9,26.3,30.01,South,180,1.2,1.2,33,0.00,CLR,,0.01,WeatherDisplay:10.37,2013-05-16 04:43:00,
2013-05-15 21:48:00,54.7,27.5,30.01,South,180,0.0,0.0,35,0.00,CLR,,0.01,WeatherDisplay:10.37,2013-05-16 04:48:00,
2013-05-15 21:53:00,54.7,28.2,30.01,West,270,0.0,0.0,36,0.00,CLR,,0.01,WeatherDisplay:10.37,2013-05-16 04:53:00,
2013-05-15 21:58:00,54.5,28.7,30.01,SW,225,0.0,0.0,37,0.00,CLR,,0.01,WeatherDisplay:10.37,2013-05-16 04:58:00,
2013-05-15 22:03:00,54.5,30.0,30.01,South,180,0.0,0.0,39,0.00,CLR,,0.01,WeatherDisplay:10.37,2013-05-16 05:03:00,
2013-05-15 22:08:00,54.5,30.6,30.02,SE,135,0.0,0.0,40,0.00,CLR,,0.01,WeatherDisplay:10.37,2013-05-16 05:08:00,
2013-05-15 22:13:00,54.5,31.9,30.01,SW,225,1.2,1.2,42,0.00,CLR,,0.01,WeatherDisplay:10.37,2013-05-16 05:13:00,
2013-05-15 22:18:00,54.3,32.3,30.01,South,180,1.2,0.0,43,0.00,CLR,,0.01,WeatherDisplay:10.37,2013-05-16 05:18:00,
2013-05-15 22:23:00,54.3,32.8,30.02,SW,225,1.2,0.0,44,0.00,CLR,,0.01,WeatherDisplay:10.37,2013-05-16 05:23:00,
2013-05-15 22:28:00,54.3,32.8,30.02,SW,225,0.0,0.0,44,0.00,CLR,,0.01,WeatherDisplay:10.37,2013-05-16 05:28:00,
2013-05-15 22:33:00,54.5,33.6,30.01,South,180,1.2,0.0,45,0.00,CLR,,0.01,WeatherDisplay:10.37,2013-05-16 05:33:00,
2013-05-15 22:38:00,54.3,33.4,30.01,West,270,0.0,0.0,45,0.00,CLR,,0.01,WeatherDisplay:10.37,2013-05-16 05:38:00,
2013-05-15 22:43:00,54.3,34.0,30.02,SW,225,1.2,0.0,46,0.00,CLR,,0.01,WeatherDisplay:10.37,2013-05-16 05:43:00,
2013-05-15 22:48:00,54.3,34.0,30.02,West,270,2.3,2.3,46,0.00,CLR,,0.01,WeatherDisplay:10.37,2013-05-16 05:48:00,
2013-05-15 22:53:00,54.3,34.5,30.02,North,0,1.2,0.0,47,0.01,RA,,0.02,WeatherDisplay:10.37,2013-05-16 05:53:00,
2013-05-15 22:58:00,54.3,35.5,30.01,NE,45,1.2,0.0,49,0.01,RA,,0.02,WeatherDisplay:10.37,2013-05-16 05:58:00,
2013-05-15 23:03:00,54.3,35.5,30.01,SW,225,1.2,0.0,49,0.01,,,0.02,WeatherDisplay:10.37,2013-05-16 06:03:00,
2013-05-15 23:08:00,54.1,36.4,30.01,South,180,1.2,1.2,51,0.01,CLR,,0.02,WeatherDisplay:10.37,2013-05-16 06:08:00,
2013-05-15 23:13:00,54.0,36.7,30.01,SW,225,1.2,0.0,52,0.01,CLR,,0.02,WeatherDisplay:10.37,2013-05-16 06:13:00,
2013-05-15 23:18:00,54.0,36.7,30.01,East,90,1.2,0.0,52,0.01,CLR,,0.02,WeatherDisplay:10.37,2013-05-16 06:18:00,
2013-05-15 23:23:00,54.0,37.2,30.00,NE,45,1.2,1.2,53,0.01,CLR,,0.02,WeatherDisplay:10.37,2013-05-16 06:23:00,
2013-05-15 23:28:00,54.0,38.1,30.00,NW,315,1.2,0.0,55,0.01,CLR,,0.02,WeatherDisplay:10.37,2013-05-16 06:28:00,
2013-05-15 23:33:00,53.8,37.5,30.00,West,270,1.2,0.0,54,0.01,CLR,,0.02,WeatherDisplay:10.37,2013-05-16 06:33:00,
2013-05-15 23:38:00,53.8,38.0,30.00,NW,315,1.2,0.0,55,0.01,CLR,,0.02,WeatherDisplay:10.37,2013-05-16 06:38:00,
2013-05-15 23:43:00,54.0,38.1,30.00,West,270,1.2,0.0,55,0.01,CLR,,0.02,WeatherDisplay:10.37,2013-05-16 06:43:00,
2013-05-15 23:48:00,53.8,38.0,30.00,SE,135,1.2,0.0,55,0.01,CLR,,0.02,WeatherDisplay:10.37,2013-05-16 06:48:00,
2013-05-15 23:53:00,54.0,38.6,29.99,SE,135,0.0,0.0,56,0.00,CLR,,0.02,WeatherDisplay:10.37,2013-05-16 06:53:00,
2013-05-15 23:58:00,54.0,38.6,29.99,West,270,1.2,0.0,56,0.01,RA,,0.04,WeatherDisplay:10.37,2013-05-16 06:58:00,